[[{"header":{"parameterUnit":"m.s-1","parameterCategory":1,"la1":30.2992,"la2":30.254,"lo1":-89.0895,"lo2":-89.0443,"dy":0.0025,"dx":0.0025,"nx":19,"ny":19,"refTime":"2026-04-24T21:00:00:Z","depth":0,"parameterNumber":2,"parameterNumberName":"U-component_of_WINDS"},"data":[0,0,0,1.1437,1.1436,1.1411,1.1411,1.1382,1.1381,0,0,0,0,0,0,0,0,0,0,0,1.1445,1.1445,1.1437,1.1436,1.1411,1.1411,1.1382,1.1381,0,0,0,0,0,0,0,0,0,0,0,1.1445,1.1445,1.1444,1.1436,1.1411,1.1411,1.1382,1.14,0,0,0,0,0,0,0,0,0,0,1.1424,1.1432,1.1445,1.1444,1.1436,1.1411,1.1411,1.1401,1.1399,1.1394,0,1.1389,0,1.1385,1.138,1.1379,0,0,0,1.1436,1.1433,1.1426,1.1444,1.1436,1.1411,1.1422,1.14,1.1397,1.1391,1.1389,1.1388,1.1384,1.1379,1.1379,1.1353,1.1353,0,0,1.1437,1.144,1.1427,1.1425,1.1428,1.1423,1.1421,1.1398,1.1396,1.1389,1.1387,1.1384,1.1379,1.1379,1.1353,1.1353,0,0,0,1.1441,1.1441,1.1435,1.1426,1.1421,1.1422,1.142,1.1397,1.1394,1.1387,1.1384,1.1379,1.1379,1.1354,1.1353,1.1353,0,0,0,1.1442,1.1444,1.1435,1.1437,1.1422,1.1408,1.1419,1.1396,1.1393,1.1384,1.1379,1.1378,1.1354,1.1353,1.1353,1.1351,0,0,0,1.1446,1.1444,1.1441,1.1438,1.1427,1.1409,1.1405,1.1395,1.1391,1.1379,1.1378,1.1354,1.1353,1.1353,1.1352,1.1346,0,0,0,1.1451,1.1439,1.1441,1.1427,1.1427,1.1408,1.1405,1.139,1.138,1.1379,1.1354,1.1353,1.1353,1.1352,1.1347,1.1343,1.1341,0,0,1.1438,1.1438,1.143,1.143,1.1412,1.1412,1.1394,1.138,1.1376,1.1362,1.1361,1.1353,1.1352,1.1346,1.1332,1.1331,0,0,0,1.1427,1.1421,1.1415,1.1406,1.1396,1.1388,1.1378,1.1374,1.1361,1.1369,1.1349,1.1348,1.1345,1.1343,1.1342,1.134,1.1353,1.1353,1.1353,1.1412,1.1409,1.1395,1.1389,1.138,1.1371,1.1364,1.1357,1.1354,1.135,1.1345,1.1337,1.1335,1.1334,1.1332,1.1343,1.1343,1.1343,1.1343,1.1393,1.1385,1.1384,1.1371,1.1367,1.1356,1.1348,1.1347,1.1337,1.1339,1.1336,1.1339,1.1333,1.1331,1.1343,1.1343,1.1343,1.1343,1.1343,1.1384,1.1379,1.1375,1.1363,1.1355,1.1349,1.134,1.1337,1.1334,1.1332,1.1327,1.1327,1.1328,1.133,1.133,1.133,1.133,1.133,1.133,1.1375,1.1371,1.1364,1.1355,1.135,1.1343,1.1336,1.1331,1.1325,1.1324,1.1324,1.1323,1.1333,1.1336,1.1329,1.1329,1.1329,1.1329,1.1329,1.1358,1.1362,1.1351,1.1346,1.1337,1.133,1.1327,1.1318,1.1314,1.131,1.131,1.1318,1.1318,1.1318,1.1321,1.1311,1.1311,1.1311,1.1311,1.135,1.135,1.1339,1.1332,1.1325,1.1322,1.1311,1.1307,1.1302,1.13,1.1301,1.1304,1.1305,1.1304,1.1305,1.1307,1.1294,1.1294,1.1294,1.134,1.1339,1.133,1.1326,1.1319,1.1314,1.1304,1.1297,1.1293,1.1293,1.1298,1.1299,1.1304,1.1305,1.1304,1.1306,1.131,0,0]},{"header":{"parameterUnit":"m.s-1","parameterCategory":1,"la1":30.2992,"la2":30.254,"lo1":-89.0895,"lo2":-89.0443,"dy":0.0025,"dx":0.0025,"nx":19,"ny":19,"refTime":"2026-04-24T21:00:00:Z","depth":0,"parameterNumber":3,"parameterNumberName":"V-component_of_WINDS"},"data":[0,0,0,2.9034,2.9035,2.9119,2.912,2.9215,2.9216,0,0,0,0,0,0,0,0,0,0,0,2.9,2.9001,2.9034,2.9036,2.9119,2.912,2.9215,2.9216,0,0,0,0,0,0,0,0,0,0,0,2.9,2.9001,2.9001,2.9036,2.9119,2.912,2.9215,2.9156,0,0,0,0,0,0,0,0,0,0,2.9077,2.9037,2.9,2.9001,2.9036,2.9119,2.912,2.9153,2.916,2.9171,0,2.9178,0,2.9199,2.9221,2.9222,0,0,0,2.9042,2.9031,2.9062,2.9001,2.9037,2.9119,2.9083,2.9157,2.9164,2.918,2.918,2.9184,2.92,2.9222,2.9222,2.9267,2.9267,0,0,2.9038,2.9011,2.9057,2.9066,2.9051,2.9081,2.9086,2.9162,2.916,2.918,2.9186,2.9202,2.9222,2.9223,2.9267,2.9267,0,0,0,2.902,2.9007,2.9036,2.9062,2.9078,2.9083,2.9089,2.9157,2.9169,2.9188,2.9203,2.9223,2.9224,2.9267,2.9267,2.9236,0,0,0,2.9017,2.8997,2.9034,2.9018,2.9076,2.9118,2.9082,2.9164,2.9173,2.9202,2.9223,2.9225,2.9268,2.9267,2.9237,2.9226,0,0,0,2.8998,2.8995,2.9004,2.9017,2.9052,2.9118,2.9134,2.9166,2.9182,2.9222,2.9225,2.9268,2.9267,2.9238,2.9227,2.923,0,0,0,2.8969,2.8974,2.9003,2.9015,2.9051,2.9098,2.9134,2.917,2.92,2.9223,2.9267,2.9267,2.9239,2.9228,2.9231,2.9228,2.9224,0,0,2.896,2.8972,2.8981,2.901,2.9044,2.9087,2.9118,2.9171,2.92,2.9243,2.9245,2.9237,2.9228,2.9231,2.9211,2.9207,0,0,0,2.897,2.8976,2.8991,2.9019,2.906,2.9095,2.9146,2.9167,2.9205,2.9216,2.924,2.9235,2.9238,2.9237,2.9235,2.9239,2.9266,2.9266,2.9266,2.8917,2.8955,2.8973,2.9021,2.9048,2.9102,2.9128,2.9165,2.9193,2.9199,2.9211,2.9195,2.9193,2.9191,2.9196,2.9213,2.9213,2.9213,2.9213,2.8908,2.8923,2.8964,2.8996,2.9036,2.9064,2.9118,2.9138,2.9171,2.9188,2.9192,2.9207,2.9187,2.9193,2.9211,2.9211,2.9211,2.9212,2.9212,2.8878,2.8892,2.8917,2.8963,2.8995,2.9044,2.9074,2.911,2.9143,2.9148,2.9166,2.9167,2.9172,2.9154,2.9154,2.9154,2.9154,2.9154,2.9154,2.8836,2.8866,2.8886,2.8933,2.8957,2.8993,2.905,2.9075,2.9112,2.9136,2.9136,2.9165,2.9178,2.918,2.9153,2.9153,2.9153,2.9153,2.9153,2.8812,2.8824,2.8856,2.888,2.8939,2.8969,2.9015,2.9063,2.9089,2.9104,2.9133,2.9137,2.9151,2.9153,2.9156,2.9124,2.9124,2.9124,2.9124,2.8786,2.8798,2.884,2.8876,2.8917,2.8962,2.8999,2.9045,2.9094,2.9113,2.9123,2.913,2.9131,2.9145,2.9147,2.915,2.9118,2.9118,2.9118,2.8774,2.8792,2.8815,2.8863,2.8913,2.8955,2.8992,2.9034,2.9092,2.9118,2.9129,2.9129,2.914,2.9141,2.9166,2.9169,2.9175,0,0]}]]